When you browse on this site, cookies collect data to enhance your experience and personalize the content and advertising you see.
Visit our Privacy Policy to learn more. By continuing to use the site, you agree to this use of cookies and data.
  • In Austria
  • List of Countries
  • For 7 days
  • Water Temperature
  • Weather Map
  • News
  • Weather Widgets
  • user-avatar
    Login

    Hourly Weather Mosquera

    Today, 23 September, Monday

    Time Temperature Precipitation Wind Pressure Humidity
    00:00 +11°C° 0.1 mm 1 mps 561 mmHg 84%
    01:00 +11°C° 0 mm 1 mps 561 mmHg 84%
    02:00 +11°C° 0.2 mm 1 mps 561 mmHg 84%
    03:00 +11°C° 0.2 mm 1 mps 561 mmHg 84%
    04:00 +11°C° 0.2 mm 1 mps 561 mmHg 83%
    05:00 +11°C° 0.1 mm 1 mps 562 mmHg 82%
    06:00 +12°C° 0.1 mm 1 mps 562 mmHg 80%
    07:00 +13°C° 0.1 mm 1 mps 563 mmHg 78%
    08:00 +15°C° 0.1 mm 1 mps 564 mmHg 72%
    09:00 +16°C° 0.1 mm 1 mps 565 mmHg 66%
    10:00 +19°C° 0.1 mm 1 mps 566 mmHg 60%
    11:00 +18°C° 0.3 mm 2 mps 565 mmHg 63%
    12:00 +18°C° 0.3 mm 2 mps 564 mmHg 65%
    13:00 +18°C° 0.3 mm 2 mps 563 mmHg 68%
    14:00 +18°C° 0.7 mm 2 mps 563 mmHg 70%
    15:00 +18°C° 0.7 mm 1 mps 562 mmHg 72%
    16:00 +18°C° 0.7 mm 1 mps 562 mmHg 74%
    17:00 +16°C° 0.5 mm 1 mps 562 mmHg 76%
    18:00 +15°C° 0.5 mm 1 mps 561 mmHg 79%
    19:00 +14°C° 0.5 mm 1 mps 561 mmHg 82%
    20:00 +14°C° 0.1 mm 1 mps 562 mmHg 82%
    21:00 +13°C° 0.1 mm 1 mps 562 mmHg 81%
    22:00 +13°C° 0.1 mm 1 mps 562 mmHg 81%
    23:00 +12°C° 0.1 mm 0 mps 562 mmHg 82%

    Tomorrow, 24 September, Tuesday

    Time Temperature Precipitation Wind Pressure Humidity
    00:00 +12°C° 0.1 mm 0 mps 562 mmHg 82%
    01:00 +11°C° 0.1 mm 0 mps 561 mmHg 83%
    02:00 +11°C° 0 mm 0 mps 561 mmHg 84%
    03:00 +10°C° 0 mm 0 mps 561 mmHg 85%
    04:00 +10°C° 0 mm 0 mps 561 mmHg 86%
    05:00 +11°C° 0 mm 0 mps 561 mmHg 84%
    06:00 +11°C° 0 mm 0 mps 562 mmHg 83%
    07:00 +12°C° 0 mm 0 mps 563 mmHg 81%
    08:00 +14°C° 0.2 mm 1 mps 564 mmHg 78%
    09:00 +16°C° 0.2 mm 1 mps 565 mmHg 74%
    10:00 +17°C° 0.2 mm 2 mps 566 mmHg 70%
    11:00 +17°C° 0.6 mm 2 mps 565 mmHg 72%
    12:00 +17°C° 0.6 mm 2 mps 564 mmHg 74%
    13:00 +17°C° 0.6 mm 2 mps 563 mmHg 76%
    14:00 +16°C° 0.9 mm 2 mps 562 mmHg 76%
    15:00 +16°C° 0.9 mm 1 mps 562 mmHg 77%
    16:00 +16°C° 0.9 mm 1 mps 561 mmHg 77%
    17:00 +15°C° 0.3 mm 1 mps 561 mmHg 80%
    18:00 +14°C° 0.3 mm 1 mps 561 mmHg 83%
    19:00 +13°C° 0.3 mm 1 mps 561 mmHg 86%
    20:00 +13°C° 0 mm 1 mps 561 mmHg 85%
    21:00 +13°C° 0 mm 1 mps 562 mmHg 84%
    22:00 +12°C° 0 mm 1 mps 562 mmHg 83%
    23:00 +12°C° 0 mm 1 mps 562 mmHg 83%

    Day after tomorrow, 25 September, Wednesday

    Time Temperature Precipitation Wind Pressure Humidity
    00:00 +11°C° 0 mm 0 mps 562 mmHg 84%
    01:00 +11°C° 0 mm 0 mps 561 mmHg 84%
    02:00 +11°C° 0.1 mm 0 mps 561 mmHg 84%
    03:00 +11°C° 0.1 mm 0 mps 561 mmHg 84%
    04:00 +11°C° 0.1 mm 0 mps 561 mmHg 85%
    05:00 +12°C° 0.1 mm 0 mps 562 mmHg 84%
    06:00 +12°C° 0.1 mm 0 mps 562 mmHg 83%
    07:00 +13°C° 0.1 mm 1 mps 563 mmHg 82%
    08:00 +15°C° 0.2 mm 1 mps 564 mmHg 78%
    09:00 +16°C° 0.2 mm 1 mps 565 mmHg 75%
    10:00 +18°C° 0.2 mm 1 mps 565 mmHg 71%
    11:00 +18°C° 1.1 mm 1 mps 564 mmHg 72%
    12:00 +19°C° 1.1 mm 1 mps 564 mmHg 73%
    13:00 +19°C° 1.1 mm 1 mps 563 mmHg 74%
    14:00 +19°C° 1.3 mm 1 mps 563 mmHg 75%
    15:00 +18°C° 1.3 mm 1 mps 562 mmHg 76%
    16:00 +18°C° 1.3 mm 1 mps 562 mmHg 77%
    17:00 +16°C° 1.2 mm 1 mps 562 mmHg 81%
    18:00 +15°C° 1.2 mm 1 mps 561 mmHg 85%
    19:00 +14°C° 1.2 mm 1 mps 561 mmHg 89%
    20:00 +13°C° 0.3 mm 1 mps 561 mmHg 89%
    21:00 +12°C° 0.3 mm 1 mps 562 mmHg 89%
    22:00 +12°C° 0.3 mm 1 mps 562 mmHg 88%
    23:00 +12°C° 0 mm 1 mps 562 mmHg 88%

    26 September, Thursday

    Time Temperature Precipitation Wind Pressure Humidity
    00:00 +10°C° 0 mm 0 mps 561 mmHg 88%
    01:00 +10°C° 0 mm 0 mps 561 mmHg 87%
    02:00 +10°C° 0 mm 0 mps 561 mmHg 87%
    03:00 +11°C° 0 mm 1 mps 561 mmHg 86%
    04:00 +11°C° 0 mm 1 mps 560 mmHg 85%
    05:00 +12°C° 0 mm 1 mps 561 mmHg 84%
    06:00 +12°C° 0 mm 1 mps 562 mmHg 83%
    07:00 +13°C° 0 mm 1 mps 563 mmHg 82%
    08:00 +15°C° 0.1 mm 1 mps 564 mmHg 76%
    09:00 +16°C° 0.1 mm 1 mps 564 mmHg 71%
    10:00 +19°C° 0.1 mm 1 mps 565 mmHg 65%
    11:00 +19°C° 0.9 mm 1 mps 564 mmHg 68%
    12:00 +19°C° 0.9 mm 1 mps 564 mmHg 70%
    13:00 +18°C° 0.9 mm 2 mps 563 mmHg 73%
    14:00 +18°C° 1 mm 1 mps 562 mmHg 74%
    15:00 +18°C° 1 mm 1 mps 562 mmHg 74%
    16:00 +18°C° 1 mm 1 mps 561 mmHg 75%
    17:00 +16°C° 0.7 mm 1 mps 561 mmHg 78%
    18:00 +14°C° 0.7 mm 1 mps 561 mmHg 82%
    19:00 +13°C° 0.7 mm 1 mps 560 mmHg 85%
    20:00 +13°C° 0.3 mm 1 mps 561 mmHg 85%
    21:00 +12°C° 0.3 mm 1 mps 561 mmHg 85%
    22:00 +12°C° 0.3 mm 1 mps 561 mmHg 84%
    23:00 +12°C° 0.1 mm 1 mps 561 mmHg 84%

    27 September, Friday

    Time Temperature Precipitation Wind Pressure Humidity
    00:00 +11°C° 0.1 mm 1 mps 561 mmHg 84%
    01:00 +11°C° 0.1 mm 1 mps 560 mmHg 84%
    02:00 +11°C° 0 mm 1 mps 560 mmHg 84%
    03:00 +11°C° 0 mm 1 mps 560 mmHg 84%
    04:00 +11°C° 0 mm 1 mps 560 mmHg 84%
    05:00 +11°C° 0 mm 1 mps 561 mmHg 83%
    06:00 +12°C° 0 mm 1 mps 562 mmHg 81%
    07:00 +13°C° 0 mm 1 mps 562 mmHg 79%
    08:00 +15°C° 0.1 mm 1 mps 563 mmHg 74%
    09:00 +18°C° 0.1 mm 1 mps 564 mmHg 69%
    10:00 +20°C° 0.1 mm 1 mps 565 mmHg 64%
    11:00 +19°C° 0.8 mm 1 mps 564 mmHg 67%
    12:00 +18°C° 0.8 mm 2 mps 564 mmHg 71%
    13:00 +18°C° 0.8 mm 2 mps 563 mmHg 74%
    14:00 +17°C° 0.9 mm 2 mps 562 mmHg 75%
    15:00 +18°C° 0.9 mm 1 mps 562 mmHg 76%
    16:00 +18°C° 0.9 mm 1 mps 561 mmHg 77%
    17:00 +16°C° 0.7 mm 1 mps 561 mmHg 80%
    18:00 +14°C° 0.7 mm 1 mps 561 mmHg 84%
    19:00 +13°C° 0.7 mm 1 mps 560 mmHg 88%
    20:00 +13°C° 0.1 mm 1 mps 561 mmHg 86%
    21:00 +12°C° 0.1 mm 1 mps 561 mmHg 85%
    22:00 +12°C° 0.1 mm 1 mps 561 mmHg 83%
    23:00 +12°C° 0.1 mm 1 mps 561 mmHg 83%

    28 September, Saturday

    Time Temperature Precipitation Wind Pressure Humidity
    00:00 +11°C° 0.1 mm 1 mps 561 mmHg 84%
    01:00 +11°C° 0.1 mm 1 mps 560 mmHg 84%
    02:00 +11°C° 0 mm 1 mps 560 mmHg 85%
    03:00 +11°C° 0 mm 1 mps 560 mmHg 85%
    04:00 +10°C° 0 mm 1 mps 559 mmHg 85%
    05:00 +11°C° 0 mm 1 mps 560 mmHg 83%
    06:00 +12°C° 0 mm 1 mps 561 mmHg 80%
    07:00 +13°C° 0 mm 1 mps 562 mmHg 78%
    08:00 +15°C° 0.1 mm 1 mps 563 mmHg 71%
    09:00 +18°C° 0.1 mm 1 mps 564 mmHg 65%
    10:00 +20°C° 0.1 mm 1 mps 565 mmHg 58%
    11:00 +19°C° 0.4 mm 2 mps 564 mmHg 62%
    12:00 +19°C° 0.4 mm 2 mps 564 mmHg 65%
    13:00 +19°C° 0.4 mm 2 mps 563 mmHg 69%
    14:00 +18°C° 1.1 mm 2 mps 562 mmHg 73%
    15:00 +19°C° 1.1 mm 1 mps 561 mmHg 77%
    16:00 +18°C° 1.1 mm 1 mps 561 mmHg 81%
    17:00 +16°C° 1.5 mm 1 mps 560 mmHg 83%
    18:00 +15°C° 1.5 mm 1 mps 560 mmHg 86%
    19:00 +13°C° 1.5 mm 1 mps 560 mmHg 89%
    20:00 +13°C° 0.6 mm 1 mps 560 mmHg 89%
    21:00 +12°C° 0.6 mm 1 mps 560 mmHg 88%
    22:00 +12°C° 0.6 mm 1 mps 560 mmHg 88%
    23:00 +12°C° 0.1 mm 1 mps 560 mmHg 89%
    Show more